CAPE
1507 1438 1390 1572 1724 1275 1328 1355 1359 1441 1165 780 1051 984 831 590 686 683 580 503 499 492 409 570 485 944 1838 1523 1218 1243 1175 1148 1014 548 591 929 674 581 682 723 820 1241 324 464 618 461 370 570 324 489 496 812 404 600 602 400 477 446 491 541 407 408 1447
1621 1655 1457 1402 1572 1367 1328 1475 1081 1124 1066 412 544 669 734 544 528 694 644 628 416 430 444 381 463 619 1688 2179 2158 1472 1921 1367 1001 858 611 532 960 968 535 701 905 482 670 472 364 385 239 261 352 268 589 545 812 504 664 603 493 917 764 568 508 406 904
1916 1791 1756 1414 1490 1378 1229 1188 880 638 599 446 498 484 526 553 701 453 428 598 505 586 539 683 355 785 1548 1650 1858 1640 1414 1251 746 789 695 784 607 718 903 720 551 937 358 629 913 662 427 252 210 250 392 446 391 704 480 544 390 549 516 649 495 315 282
1851 1945 1664 1683 1409 1338 1196 1082 970 802 698 547 616 772 780 816 598 750 583 462 552 714 584 574 699 618 1449 1395 1475 1248 769 834 1128 998 962 886 589 442 699 854 911 380 406 690 731 723 373 358 280 449 525 440 359 432 482 582 413 332 356 488 401 326 369
1874 1686 1816 1957 1314 1225 1046 939 926 840 711 542 576 840 1161 920 750 687 463 784 536 396 670 517 504 732 920 1287 1103 1030 744 830 813 914 1067 771 431 484 424 697 360 631 937 914 944 494 482 336 213 229 312 479 378 462 328 471 283 274 288 350 311 400 435
1729 1682 1095 1760 1856 1533 1237 850 957 741 767 732 630 645 720 727 800 862 922 949 526 593 774 781 852 878 740 771 656 495 553 681 899 909 877 710 466 829 784 783 955 1000 850 668 642 447 476 464 287 415 120 221 287 288 214 343 301 329 359 244 169 398 315
1461 1578 1572 855 1304 1729 1517 1588 1464 1159 1026 906 748 746 879 777 773 822 986 883 674 623 566 625 695 814 892 631 509 804 686 598 1022 989 1013 875 791 850 688 478 1019 704 939 662 222 446 490 366 432 448 256 187 265 326 496 218 272 255 318 129 254 261 289
1330 1288 1546 1203 1192 1539 1135 987 868 970 1690 1054 1060 1114 1094 1070 942 963 907 934 1054 914 789 752 1236 1310 828 786 461 302 547 842 841 948 1127 937 778 895 714 1070 941 612 567 556 390 471 570 571 404 421 519 191 140 368 165 156 256 327 420 423 173 275 250
1003 1048 1316 1475 1298 964 944 1044 1063 918 1042 1580 1040 1037 1195 1210 1080 1107 1095 1016 731 727 611 694 765 1002 973 1111 659 621 507 669 536 522 1036 566 637 979 704 750 1176 658 716 673 588 416 362 547 248 328 397 341 207 179 266 205 242 346 201 288 330 223 133
780 1058 924 913 1532 960 814 733 731 718 908 1361 1124 925 938 917 1004 1152 946 1209 970 884 754 654 652 777 904 864 674 545 466 1217 1045 1135 577 1124 1060 977 754 1142 837 805 1047 913 741 850 474 751 458 555 390 253 351 203 267 296 310 508 360 348 268 152 66
652 857 977 1032 748 1385 810 537 704 730 767 831 881 1010 840 1086 1027 993 963 873 802 1239 1204 738 521 624 702 793 701 628 677 1034 1235 1442 1426 742 685 1190 1230 652 938 964 919 1077 834 1197 1280 1071 763 422 374 250 394 279 450 242 347 325 293 312 291 165 154
516 759 856 915 720 558 677 615 590 553 669 741 696 921 1035 1067 912 754 1091 840 1222 1125 1091 1099 890 932 510 629 512 568 830 1120 1260 596 639 622 628 918 988 840 1150 1209 975 1204 1482 1595 1222 990 1064 461 385 470 422 310 316 263 484 352 330 356 267 202 214
354 641 785 870 1094 828 566 660 620 442 498 577 589 720 1223 1143 713 874 502 1148 700 587 1162 988 1015 603 526 562 656 707 900 882 580 484 403 251 513 655 1164 790 1286 1003 1243 1107 1116 1139 1326 942 959 1252 815 496 476 933 513 610 353 630 858 456 227 143 226
202 309 626 856 1061 981 754 702 662 692 633 370 674 572 872 1265 1148 625 628 450 697 818 673 1107 578 689 526 553 618 653 810 794 620 431 368 367 516 1248 940 851 995 964 1007 1036 987 1134 935 909 780 874 724 527 387 712 509 582 350 511 714 550 367 121 90
63 156 338 567 614 574 685 869 903 744 577 608 579 700 854 1085 1339 906 581 1023 584 892 655 549 512 576 620 564 590 558 712 565 422 457 518 422 369 937 1221 907 808 767 652 1036 965 901 797 777 754 598 653 467 437 610 420 554 335 838 1072 460 200 126 105
10 20 62 210 296 382 644 712 842 834 749 635 700 1050 791 886 958 966 874 863 758 1107 857 785 655 561 571 435 486 641 616 492 400 434 458 465 523 830 1188 928 770 932 1020 1178 1392 1150 885 778 597 585 482 374 358 514 532 644 305 474 552 416 211 182 222
6 6 7 16 55 131 165 124 781 840 887 899 681 1291 1228 1118 1132 1269 861 521 744 930 1079 1214 806 684 846 432 579 462 428 402 388 383 204 210 253 426 812 934 880 1245 1116 918 1294 1069 1038 804 684 669 578 1038 687 578 308 519 63 494 549 261 144 31 90
6 7 5 7 9 9 96 218 308 517 704 833 878 953 1099 910 1444 1213 727 598 589 637 979 830 1188 937 830 841 699 719 702 450 412 391 412 245 273 310 872 882 742 958 1119 1313 949 841 886 921 629 790 714 439 574 653 678 381 489 295 226 53 68 7 1
1 2 3 3 5 5 7 6 102 326 421 593 792 904 844 1264 1096 1134 870 484 665 463 352 499 711 698 768 1010 880 788 724 940 525 402 447 312 250 376 582 849 1226 1072 1041 911 810 1132 1046 936 765 579 567 505 385 491 408 288 392 13 1 0 0 0 0
1 2 4 3 2 4 4 5 5 67 285 446 590 781 909 655 1164 964 896 735 588 515 542 789 1314 1235 1259 794 1014 929 816 638 509 411 341 328 449 744 727 1058 1074 752 904 903 1089 1055 996 1008 778 656 735 464 536 194 386 370 325 4 0 0 0 0 0
0 0 4 3 4 4 3 4 4 4 106 395 548 567 696 761 633 790 868 753 747 519 356 458 707 1033 1250 1241 1325 1184 1053 935 422 342 515 687 449 312 869 781 1098 946 720 771 725 794 991 798 559 430 153 376 100 380 540 372 439 46 23 2 0 0 0
3 0 1 2 2 3 2 3 1 0 0 36 214 527 642 595 600 524 860 1027 732 729 690 711 594 490 997 1253 1092 999 1025 661 687 520 565 728 603 1136 763 1141 1080 687 384 349 249 476 561 613 542 622 698 398 247 893 973 394 322 168 58 31 23 5 0
0 1 2 2 3 3 2 2 1 0 25 32 127 180 196 388 652 530 732 852 710 668 632 763 453 498 540 618 943 754 788 741 724 774 538 675 875 1012 1226 1147 1017 473 400 327 297 370 347 358 440 672 677 617 539 749 1070 832 380 240 119 37 57 35 27
0 1 1 4 6 2 4 4 2 1 1 18 86 138 142 134 215 234 453 350 416 910 775 698 544 497 529 512 846 1089 1250 1033 500 527 528 545 860 1118 1235 877 769 628 586 421 408 443 498 401 408 514 587 438 254 971 802 861 284 268 628 331 1212 547 115
1 2 1 1 4 2 4 4 3 4 3 1 2 7 1 1 196 268 240 217 236 324 343 348 362 472 488 487 389 574 741 576 354 532 762 723 521 1191 934 614 756 885 765 629 348 538 523 559 637 594 721 496 420 502 647 750 772 866 479 580 264 421 407
3 2 4 3 2 4 3 4 4 4 3 4 3 13 32 5 1 152 214 210 199 215 223 224 453 460 481 462 420 411 632 540 304 307 616 534 657 952 699 571 1021 1045 705 773 601 568 598 612 551 718 665 538 376 426 595 529 426 581 708 590 647 432 455
3 2 3 2 3 1 2 3 4 3 4 4 5 3 9 29 40 26 31 2 4 40 207 352 403 387 363 390 392 365 317 456 219 155 371 653 847 1278 1460 1110 549 1028 881 1113 981 1072 759 520 562 481 476 424 478 307 516 630 609 359 120 298 627 824 657
4 3 4 2 3 2 2 4 2 3 2 3 3 4 2 28 40 41 34 20 4 5 0 204 217 240 283 299 315 259 172 149 324 324 491 545 730 585 853 728 927 942 882 850 968 486 306 504 403 406 389 425 272 24 193 255 379 254 134 345 763 642 322
3 5 3 4 2 2 1 1 3 2 1 1 2 2 1 2 2 8 23 38 35 45 8 6 74 102 86 292 248 209 170 221 141 380 619 484 694 495 517 781 748 431 650 589 441 446 478 693 383 359 262 213 185 186 101 114 190 188 204 387 375 21 46
4 4 4 5 4 5 3 2 2 1 2 3 2 0 1 2 0 1 1 25 60 18 15 35 4 2 142 173 185 131 204 215 113 99 1 517 548 342 254 254 311 329 400 218 388 224 297 337 247 252 207 202 160 0 0 0 74 235 351 234 138 244 302
4 5 7 5 5 5 4 3 1 0 0 1 2 2 2 2 1 2 1 0 29 45 37 24 14 13 186 187 162 128 99 99 58 26 171 490 133 89 360 346 181 414 925 188 166 188 267 356 524 113 107 136 170 129 0 0 20 12 199 293 250 216 309
4 6 7 6 6 4 3 4 2 0 0 0 0 1 0 0 0 1 2 2 8 36 59 47 27 63 11 113 47 81 32 36 92 171 161 102 118 180 216 191 168 176 166 174 167 196 224 362 119 59 120 144 91 35 0 0 0 48 102 139 0 0 83
5 9 8 10 8 7 6 4 6 4 1 0 3 1 1 2 1 0 0 1 4 1 23 26 24 20 82 110 125 24 35 13 26 136 80 108 95 118 132 146 135 150 141 115 99 147 170 96 73 63 16 52 2 0 0 0 0 0 0 3 0 0 0
1 2 8 10 11 8 7 8 6 5 3 1 0 1 2 0 0 2 3 2 1 2 4 20 27 15 41 69 52 5 3 20 36 29 30 24 48 52 64 86 127 129 108 0 25 103 131 115 31 88 47 4 0 0 0 0 3 0 0 0 0 0 0
0 0 1 4 6 6 8 7 3 3 3 4 2 0 1 2 2 1 0 0 0 0 0 1 1 3 2 2 4 4 5 4 6 11 27 44 34 26 4 51 102 108 88 0 5 71 86 88 55 0 5 0 0 0 0 0 0 0 0 2 4 2 0
6 4 1 0 0 0 0 1 3 2 4 6 5 2 1 1 1 0 0 0 0 0 3 2 0 0 2 3 1 0 2 7 6 7 6 17 28 6 2 1 32 89 96 78 76 76 68 60 10 0 2 12 9 2 0 0 0 0 0 0 0 0 0
9 4 8 0 2 0 0 0 0 2 1 1 3 4 5 3 3 2 0 0 0 0 0 1 0 0 0 0 0 2 4 10 9 7 25 34 38 30 35 40 12 29 64 69 62 64 64 60 24 25 13 9 8 3 0 0 0 0 0 0 0 0 0
Wind_Speed
23 24 27 30 30 28 27 28 30 31 30 27 27 27 28 26 22 20 22 21 19 19 18 17 13 14 17 16 18 19 22 23 23 22 20 17 15 13 14 11 10 11 13 15 13 15 15 17 15 15 17 19 18 19 18 14 14 18 14 13 15 14 10
25 26 28 30 31 30 27 29 31 31 31 30 27 27 29 26 23 21 20 19 18 18 20 19 16 12 15 17 18 18 20 21 20 22 20 15 14 13 14 12 13 12 14 14 13 13 14 17 16 18 19 19 19 19 18 15 15 16 15 14 15 15 13
25 27 28 30 31 30 28 29 30 31 32 30 28 28 28 23 22 21 18 17 18 18 19 18 14 12 16 15 16 15 16 17 18 16 17 16 14 13 11 15 13 14 12 14 15 14 13 14 16 18 20 22 19 19 19 18 17 18 17 15 16 14 15
24 26 28 30 33 31 29 30 30 29 30 30 30 30 26 22 21 20 22 19 19 22 17 13 15 13 15 16 16 14 14 15 15 16 18 18 15 13 10 11 13 14 14 15 16 15 15 16 17 18 19 22 20 22 18 20 18 16 17 18 16 16 15
26 26 28 28 31 32 29 29 29 27 27 28 28 28 27 24 22 21 21 22 22 19 19 15 14 15 16 18 16 16 15 14 15 19 20 19 13 13 11 13 13 14 15 15 17 17 16 17 16 18 19 20 21 21 21 21 17 17 17 20 18 17 17
27 26 27 29 30 31 29 27 27 25 26 27 25 23 24 23 23 21 21 23 23 20 18 13 11 12 19 16 16 14 16 16 18 21 20 19 16 14 14 14 14 16 16 16 18 18 18 18 16 17 20 22 22 22 21 22 17 17 17 19 19 20 18
27 29 31 30 30 31 30 27 23 23 26 27 25 23 22 22 22 21 22 22 22 21 18 14 13 14 19 19 17 16 15 15 19 19 18 19 17 14 15 14 15 16 17 17 18 19 19 19 17 18 19 21 25 22 22 21 19 19 19 19 20 19 20
27 30 32 32 30 31 31 28 23 19 23 25 25 25 24 22 21 20 21 22 21 21 20 16 16 18 20 22 23 16 15 15 16 16 18 20 16 15 14 15 16 17 17 17 18 19 18 19 19 20 19 22 23 22 21 20 21 18 20 19 21 20 21
28 29 32 34 31 29 29 28 25 21 18 23 23 23 23 22 21 19 19 21 22 22 24 19 17 19 18 20 23 19 14 13 16 17 19 18 15 14 15 16 17 17 18 18 18 19 18 19 19 21 20 20 21 22 24 19 20 20 23 21 20 21 24
27 27 29 29 30 30 29 26 25 23 18 21 23 22 20 20 20 19 19 22 23 19 23 23 22 21 20 21 22 20 15 17 18 18 15 17 18 18 17 17 17 18 19 20 20 20 18 19 18 21 20 18 19 19 22 21 22 20 20 21 21 22 nan
28 27 28 30 28 29 31 28 27 27 22 19 19 21 19 17 18 19 20 21 23 22 24 27 25 22 22 23 23 20 18 19 19 19 18 19 17 18 18 18 18 18 19 19 21 20 20 18 18 19 18 17 18 19 21 20 21 23 22 22 21 24 24
27 26 28 32 34 29 28 28 27 26 21 21 20 17 17 16 16 18 21 21 23 24 23 27 27 25 23 23 24 21 19 20 21 21 19 21 18 18 18 18 20 19 19 19 20 20 20 19 18 18 18 16 18 20 21 20 22 23 24 22 23 22 26
25 27 30 31 32 32 31 31 28 27 22 20 18 16 17 17 16 17 20 23 23 21 25 25 27 27 24 24 24 22 20 21 18 19 20 16 18 17 20 20 21 20 20 20 19 18 20 20 19 19 18 17 18 19 21 22 22 22 25 20 25 23 27
25 26 28 31 31 31 31 29 27 28 27 20 15 14 15 17 17 18 18 24 20 23 21 27 28 27 25 25 25 22 20 20 17 18 21 15 18 23 22 22 22 22 20 19 20 20 19 20 19 18 19 16 17 20 20 23 24 22 25 24 27 24 nan
nan 26 26 27 30 28 27 27 25 27 26 21 18 17 18 16 20 19 19 23 22 26 28 25 28 28 25 24 23 22 22 23 20 20 19 17 24 25 23 21 23 23 20 19 20 21 21 22 20 18 18 16 16 18 20 21 27 26 24 26 27 27 28
nan nan nan 24 24 23 21 21 21 22 23 21 21 24 20 19 20 27 24 23 23 28 28 28 27 27 25 23 22 23 27 29 25 21 21 17 23 26 23 22 23 22 23 22 22 24 23 20 19 18 15 17 16 18 21 21 27 28 25 29 28 27 28
nan nan nan nan nan 19 19 17 17 18 19 19 21 24 22 18 18 21 23 23 21 24 27 28 28 26 25 23 25 27 27 24 24 26 25 21 20 21 23 23 24 25 26 23 21 21 21 20 19 19 18 18 21 22 21 23 nan 32 28 31 28 nan nan
nan nan nan nan nan nan nan 16 15 15 17 18 19 21 22 18 20 22 24 25 23 20 23 24 27 25 24 23 24 26 25 25 25 24 23 21 18 19 23 24 25 26 25 24 22 20 21 20 19 20 19 21 23 23 20 25 29 31 30 nan nan nan nan
nan nan nan nan nan nan nan nan 11 11 14 16 18 20 20 21 20 20 22 25 26 24 20 18 22 23 24 24 25 27 26 26 26 24 23 22 17 18 24 26 29 31 28 24 22 19 20 19 19 20 22 23 23 26 26 26 28 nan nan nan nan nan nan
nan nan nan nan nan nan nan nan nan nan 6 9 12 15 18 18 18 20 21 24 26 26 20 17 22 25 27 25 26 28 27 27 27 26 25 17 15 27 26 29 30 30 28 24 21 21 21 20 20 18 29 26 24 27 29 27 24 nan nan nan nan nan nan
nan nan nan nan nan nan nan nan nan nan 5 3 3 6 11 14 14 14 18 22 26 29 27 21 18 22 27 27 28 30 29 26 24 27 25 23 24 23 25 27 29 29 28 25 26 24 29 28 28 31 30 29 26 21 25 27 26 nan nan nan nan nan nan
nan nan nan nan nan nan nan nan nan nan nan nan 7 4 6 9 8 6 12 18 22 28 29 27 22 21 23 27 28 29 30 27 26 27 27 26 26 27 26 27 27 34 35 32 35 35 30 27 30 30 32 30 26 27 25 27 26 27 nan nan nan nan nan
nan nan nan nan nan nan nan nan nan nan nan nan 12 12 11 8 5 7 7 13 19 24 27 27 27 25 22 22 26 27 30 29 26 24 28 29 27 25 26 29 34 32 30 35 38 37 34 28 29 32 34 33 23 25 24 24 24 24 21 nan nan nan nan
nan nan nan nan nan nan nan nan nan nan nan nan nan 16 16 16 16 12 11 11 13 22 25 25 26 25 23 23 27 29 30 32 31 25 26 26 25 25 27 30 33 30 32 35 38 37 32 30 30 32 36 31 27 22 26 24 23 22 25 21 27 23 27
nan nan nan nan nan nan nan nan nan nan nan nan nan nan nan nan 18 18 18 18 15 21 24 28 24 26 23 23 27 28 29 30 31 30 26 21 23 26 28 32 30 32 31 33 36 37 35 32 32 32 33 33 42 41 37 30 23 28 27 27 29 26 26
nan nan nan nan nan nan nan nan nan nan nan nan nan nan nan nan nan 21 21 21 22 21 30 28 26 28 27 27 29 29 27 29 27 25 23 22 22 29 31 32 35 33 32 35 35 34 35 36 37 39 38 41 46 43 37 34 30 27 30 29 30 26 23
nan nan nan nan nan nan nan nan nan nan nan nan nan nan nan nan nan nan nan nan nan nan 29 26 26 26 26 27 29 31 27 27 27 27 23 24 29 33 32 33 34 34 36 36 30 32 32 35 37 38 37 36 35 40 38 32 26 27 25 27 26 24 26
nan nan nan nan nan nan nan nan nan nan nan nan nan nan nan nan nan nan nan nan nan nan nan 28 27 26 25 27 30 27 27 28 29 30 26 27 30 35 32 34 35 36 34 35 33 34 32 34 36 37 39 41 42 nan 39 35 32 33 29 28 29 28 28
nan nan nan nan nan nan nan nan nan nan nan nan nan nan nan nan nan nan nan nan nan nan nan nan nan 27 nan 26 26 25 26 29 29 31 29 29 32 36 35 33 32 32 31 31 39 41 38 37 38 39 42 46 46 44 40 35 38 41 40 38 37 nan nan
nan nan nan nan nan nan nan nan nan nan nan nan nan nan nan nan nan nan nan nan nan nan nan nan nan nan 25 23 24 27 29 31 33 nan nan 28 41 52 48 43 32 28 31 35 46 46 44 37 38 41 42 43 45 nan nan nan nan 51 50 50 46 40 40
nan nan nan nan nan nan nan nan nan nan nan nan nan nan nan nan nan nan nan nan nan nan nan nan nan nan 29 22 25 26 nan nan nan nan 30 38 50 nan 51 53 47 40 42 47 48 49 42 41 40 40 39 42 45 44 nan nan nan nan 49 46 42 45 49
nan nan nan nan nan nan nan nan nan nan nan nan nan nan nan nan nan nan nan nan nan nan nan nan nan nan nan 26 nan nan nan nan nan 40 43 50 53 52 50 54 56 54 52 50 53 52 48 42 42 nan 38 43 nan nan nan nan nan nan 42 42 nan nan nan
nan nan nan nan nan nan nan nan nan nan nan nan nan nan nan nan nan nan nan nan nan nan nan nan nan nan nan 33 31 nan nan nan nan 40 nan 51 nan 53 53 53 54 56 57 57 nan 53 51 nan nan nan nan nan nan nan nan nan nan nan nan nan nan nan nan
nan nan nan nan nan nan nan nan nan nan nan nan nan nan nan nan nan nan nan nan nan nan nan nan nan nan nan nan nan nan nan nan nan nan nan nan nan nan nan nan 52 54 56 nan nan 56 54 56 nan nan nan nan nan nan nan nan nan nan nan nan nan nan nan
nan nan nan nan nan nan nan nan nan nan nan nan nan nan nan nan nan nan nan nan nan nan nan nan nan nan nan nan nan nan nan nan nan nan nan nan nan nan nan nan 52 51 nan nan nan nan nan nan nan nan nan nan nan nan nan nan nan nan nan nan nan nan nan
nan nan nan nan nan nan nan nan nan nan nan nan nan nan nan nan nan nan nan nan nan nan nan nan nan nan nan nan nan nan nan nan nan nan nan nan nan nan nan nan nan nan nan nan nan nan nan nan nan nan nan nan nan nan nan nan nan nan nan nan nan nan nan
nan nan nan nan nan nan nan nan nan nan nan nan nan nan nan nan nan nan nan nan nan nan nan nan nan nan nan nan nan nan nan nan nan nan nan nan nan nan nan nan nan nan nan nan nan nan nan nan nan nan nan nan nan nan nan nan nan nan nan nan nan nan nan
Wind_Direction
296 291 291 292 291 290 290 289 288 286 288 288 285 287 282 274 265 260 258 265 268 264 266 263 260 254 256 255 264 271 267 265 263 257 251 250 260 266 273 265 273 266 278 283 281 290 284 292 301 297 297 300 304 299 303 308 315 308 316 302 311 315 297
295 293 291 293 294 293 292 289 288 286 286 291 293 291 284 271 258 255 253 257 267 268 262 264 249 249 259 258 257 262 270 268 265 251 247 248 256 255 271 279 270 279 276 282 289 288 287 293 291 300 294 294 296 297 296 304 302 295 304 308 306 306 318
293 292 291 289 290 292 294 294 290 286 284 286 288 290 286 274 260 258 257 258 266 266 259 258 252 249 256 254 253 261 268 267 254 250 258 263 255 238 247 265 276 272 277 275 277 276 275 279 286 295 296 300 301 293 298 302 307 304 302 301 305 310 300
296 296 293 292 291 290 292 295 293 288 283 286 287 289 288 276 268 265 257 260 269 266 262 263 256 255 255 251 249 262 277 276 263 270 273 270 252 245 249 272 273 279 278 275 274 275 275 281 283 289 291 299 299 293 298 294 295 307 306 304 301 301 300
300 299 297 295 295 293 292 292 292 289 285 286 295 298 288 277 271 264 262 267 268 269 264 255 251 248 246 246 247 255 270 274 276 279 275 267 262 255 280 269 277 276 271 266 269 272 275 278 285 286 291 293 292 290 290 291 304 302 305 297 301 299 296
297 296 294 294 291 296 297 296 293 289 286 285 289 301 300 288 275 270 271 273 271 269 271 269 266 259 251 251 251 255 270 276 277 276 271 261 258 253 251 271 273 271 270 267 263 270 271 269 275 287 293 295 291 289 291 287 289 293 295 294 293 293 299
297 298 295 294 298 299 300 300 294 284 282 285 283 290 296 296 281 272 270 276 274 277 275 273 266 260 260 260 248 245 253 258 262 271 268 270 262 259 259 272 271 271 271 271 275 271 276 281 285 287 287 290 290 289 285 288 293 295 291 292 291 293 297
293 296 294 292 294 295 292 294 292 285 279 280 283 282 287 294 292 279 275 273 270 273 279 279 268 259 256 247 250 252 252 241 260 272 267 261 257 269 267 267 272 272 277 275 274 281 281 285 289 286 285 291 289 287 284 282 288 294 289 291 294 294 296
288 292 296 300 296 292 290 288 291 285 277 272 276 280 278 281 289 291 286 282 274 270 267 269 266 260 255 247 251 255 258 255 270 282 269 265 263 269 268 271 270 277 275 279 275 277 281 284 285 285 281 282 287 286 277 278 281 285 295 295 293 298 295
282 285 290 296 294 289 281 273 277 288 284 270 268 272 273 273 279 283 284 283 275 271 271 269 264 258 252 249 248 250 254 260 263 266 264 262 264 271 276 278 274 272 271 272 273 273 283 278 281 284 284 281 281 281 282 279 279 281 288 294 291 295 nan
279 284 284 290 291 288 290 289 280 279 283 277 267 265 266 270 274 279 276 279 287 286 273 267 266 259 249 247 247 242 246 257 256 251 251 255 259 260 265 274 270 267 271 277 281 278 279 280 283 286 281 274 265 273 274 280 280 285 286 291 292 294 299
278 279 282 284 286 285 281 282 290 284 275 274 275 267 266 267 267 269 272 270 282 285 274 267 267 263 253 248 247 239 245 251 247 244 241 237 244 259 270 276 270 270 273 277 276 281 281 278 281 280 277 269 270 267 277 278 284 284 288 293 292 296 298
278 279 278 280 285 283 285 288 289 293 287 269 262 258 259 262 261 266 270 269 274 287 283 272 265 266 263 257 253 250 251 250 246 244 243 247 255 267 272 277 272 270 269 272 274 278 278 277 273 268 265 275 272 270 273 270 277 281 282 292 286 291 295
275 279 279 280 286 288 288 287 288 292 281 270 258 264 269 263 268 269 269 272 271 273 277 272 270 271 266 259 255 254 255 254 246 240 240 245 269 269 272 274 272 270 269 273 274 276 281 278 275 268 261 256 271 272 279 276 275 279 273 283 283 288 nan
nan 276 276 282 287 292 293 296 294 289 284 272 270 253 232 249 260 268 267 262 268 282 273 272 269 270 269 264 262 258 256 253 246 240 244 241 264 269 268 272 275 274 273 279 281 286 284 280 275 270 274 273 273 270 280 280 280 271 275 284 286 293 294
nan nan nan 285 289 289 289 293 293 285 279 279 270 264 253 231 229 240 235 248 259 263 275 276 271 274 274 275 271 263 252 246 243 243 246 254 258 262 266 267 270 271 275 280 280 278 278 278 279 271 274 275 281 281 281 271 274 281 286 284 287 289 288
nan nan nan nan nan 298 300 299 289 272 255 247 251 253 250 243 238 241 245 242 240 260 271 277 276 273 276 274 267 262 258 256 252 248 246 236 249 262 268 273 275 276 276 281 277 277 277 269 268 273 273 261 265 265 272 281 nan 282 281 284 289 nan nan
nan nan nan nan nan nan nan 311 300 266 244 232 235 239 241 239 243 245 243 240 251 259 266 277 277 271 268 267 263 260 258 258 254 252 248 243 245 261 268 271 274 275 279 279 275 273 275 278 276 278 276 282 275 272 269 280 281 284 286 nan nan nan nan
nan nan nan nan nan nan nan nan 302 274 241 229 229 233 238 242 243 240 238 239 242 248 255 261 277 272 267 267 263 255 253 254 254 250 245 238 237 274 271 274 272 273 276 274 267 269 273 285 284 281 285 279 279 280 280 284 285 nan nan nan nan nan nan
nan nan nan nan nan nan nan nan nan nan 251 229 222 226 232 233 239 237 238 243 245 248 246 261 265 269 271 270 266 261 255 250 250 251 245 240 249 251 262 269 268 271 270 268 269 277 280 278 274 266 251 257 257 271 271 276 280 nan nan nan nan nan nan
nan nan nan nan nan nan nan nan nan nan 263 242 245 226 219 230 230 231 234 236 243 251 254 249 253 265 269 266 262 260 258 254 254 255 248 244 247 258 263 266 265 267 265 252 242 251 256 258 254 251 255 251 256 249 269 272 274 nan nan nan nan nan nan
nan nan nan nan nan nan nan nan nan nan nan nan 254 250 250 227 230 236 243 239 242 251 252 252 252 254 261 265 260 258 260 260 257 260 260 256 256 258 260 262 264 255 255 264 267 267 266 263 261 262 261 261 259 251 261 273 278 280 nan nan nan nan nan
nan nan nan nan nan nan nan nan nan nan nan nan 259 250 239 236 261 285 261 251 253 255 252 255 258 255 258 251 255 253 256 259 260 258 260 256 258 264 264 261 258 266 265 261 268 270 271 271 263 260 262 257 254 265 264 278 287 284 286 nan nan nan nan
nan nan nan nan nan nan nan nan nan nan nan nan nan 256 254 245 239 238 253 267 263 261 260 258 254 258 270 260 248 250 248 251 256 252 249 252 261 268 267 267 262 266 270 268 268 274 273 270 265 264 272 281 262 262 281 282 286 279 259 260 269 278 289
nan nan nan nan nan nan nan nan nan nan nan nan nan nan nan nan 254 251 250 255 267 266 262 250 245 253 265 272 263 252 248 245 246 252 261 255 255 267 270 266 265 263 264 267 266 265 267 271 273 272 272 263 253 248 251 270 270 266 274 270 273 270 263
nan nan nan nan nan nan nan nan nan nan nan nan nan nan nan nan nan 255 256 257 257 258 274 250 244 247 247 245 250 248 246 247 242 240 260 266 264 272 272 267 262 259 260 271 267 266 266 262 258 257 259 260 259 258 258 254 249 258 271 273 271 270 270
nan nan nan nan nan nan nan nan nan nan nan nan nan nan nan nan nan nan nan nan nan nan 272 250 242 244 247 245 242 244 247 245 241 235 236 255 258 259 259 262 265 259 258 263 261 263 265 268 263 259 259 261 264 266 264 263 260 255 256 266 265 262 260
nan nan nan nan nan nan nan nan nan nan nan nan nan nan nan nan nan nan nan nan nan nan nan 249 246 244 248 249 249 251 252 248 245 245 238 244 253 256 257 256 253 255 257 258 256 261 264 266 268 264 262 257 255 nan 254 256 255 254 256 260 256 257 253
nan nan nan nan nan nan nan nan nan nan nan nan nan nan nan nan nan nan nan nan nan nan nan nan nan 246 nan 254 260 264 260 252 247 246 242 254 258 261 258 258 260 259 252 252 254 259 256 262 268 269 264 259 256 253 251 252 257 257 252 251 253 nan nan
nan nan nan nan nan nan nan nan nan nan nan nan nan nan nan nan nan nan nan nan nan nan nan nan nan nan 247 254 264 266 261 252 245 nan nan 243 255 247 244 244 241 247 253 248 255 255 252 256 265 269 267 260 256 nan nan nan nan 259 259 261 260 255 249
nan nan nan nan nan nan nan nan nan nan nan nan nan nan nan nan nan nan nan nan nan nan nan nan nan nan 242 244 261 264 nan nan nan nan 253 248 248 nan 243 235 231 237 244 247 244 247 249 254 258 266 266 262 259 258 nan nan nan nan 264 263 260 255 251
nan nan nan nan nan nan nan nan nan nan nan nan nan nan nan nan nan nan nan nan nan nan nan nan nan nan nan 237 nan nan nan nan nan 254 250 244 241 241 241 239 235 235 243 244 243 242 242 243 256 nan 261 259 nan nan nan nan nan nan 261 257 nan nan nan
nan nan nan nan nan nan nan nan nan nan nan nan nan nan nan nan nan nan nan nan nan nan nan nan nan nan nan 239 245 nan nan nan nan 257 nan 240 nan 241 240 241 240 234 240 243 nan 243 243 nan nan nan nan nan nan nan nan nan nan nan nan nan nan nan nan
nan nan nan nan nan nan nan nan nan nan nan nan nan nan nan nan nan nan nan nan nan nan nan nan nan nan nan nan nan nan nan nan nan nan nan nan nan nan nan nan 243 237 241 nan nan 244 242 241 nan nan nan nan nan nan nan nan nan nan nan nan nan nan nan
nan nan nan nan nan nan nan nan nan nan nan nan nan nan nan nan nan nan nan nan nan nan nan nan nan nan nan nan nan nan nan nan nan nan nan nan nan nan nan nan 243 239 nan nan nan nan nan nan nan nan nan nan nan nan nan nan nan nan nan nan nan nan nan
nan nan nan nan nan nan nan nan nan nan nan nan nan nan nan nan nan nan nan nan nan nan nan nan nan nan nan nan nan nan nan nan nan nan nan nan nan nan nan nan nan nan nan nan nan nan nan nan nan nan nan nan nan nan nan nan nan nan nan nan nan nan nan
nan nan nan nan nan nan nan nan nan nan nan nan nan nan nan nan nan nan nan nan nan nan nan nan nan nan nan nan nan nan nan nan nan nan nan nan nan nan nan nan nan nan nan nan nan nan nan nan nan nan nan nan nan nan nan nan nan nan nan nan nan nan nan